Skip Page Navigation
NASA JPL Caltech
NASA Logo - Jet Propulsion Laboratory + View the NASA Portal
+ Center for Near-Earth Object Studies
JPL Home Earth Solar System Stars & Galaxies Technology
JPL Solar System Dynamics
BODIES ORBITS EPHEMERIDES TOOLS PHYSICAL DATA DISCOVERY FAQ SITE MAP
JPL Small-Body Database Browser
Search: [ help ]  
91520 (1999 RK183)
Classification: Main-belt Asteroid          SPK-ID: 2091520
Ephemeris | Orbit Diagram | Orbital Elements | Mission Design | Physical Parameters | Discovery Circumstances | Close-Approach Data ]

[ show orbit diagram ]
Orbital Elements at Epoch 2459000.5 (2020-May-31.0) TDB
Reference: JPL 19 (heliocentric ecliptic J2000)
 Element Value Uncertainty (1-sigma)   Units 
e .01872812869815139 4.0311e-08  
a 2.911548957253923 1.897e-08 au
q 2.857021093671503 1.2144e-07 au
i 2.921672074309983 5.037e-06 deg
node 133.3359482991995 0.00011949 deg
peri 350.5271595866035 0.00021769 deg
M 293.2242417974131 0.00018189 deg
tp 2459337.089760204782
(2021-May-02.58976020)
0.00091729 TDB
period 1814.615317524426
4.97
1.7735e-05
4.856e-08
d
yr
n .1983891552789971 1.9389e-09 deg/d
Q 2.966076820836343 1.9325e-08 au
  Orbit Determination Parameters
   # obs. used (total)      947  
   data-arc span      7472 days (20.46 yr)  
   first obs. used      1999-08-12  
   last obs. used      2020-01-26  
   planetary ephem.      DE431  
   SB-pert. ephem.      SB431-N16  
   condition code      0  
   norm. resid. RMS      .4965  
   source      ORB  
   producer      Otto Matic  
   solution date      2020-Feb-23 22:32:24  

Additional Information
 Earth MOID = 1.87216 au 
 Jupiter MOID = 2.01986 au 
 T_jup = 3.281 
[ show covariance matrix ]

Ephemeris | Orbit Diagram | Orbital Elements | Mission Design | Physical Parameters | Discovery Circumstances | Close-Approach Data ]

Physical Parameter Table
Parameter Symbol Value Units Sigma Reference Notes
absolute magnitude H 14.2   n/a MPO412707  

91520 (1999 RK183)          Discovered 1999-Sep-09 by LINEAR at Socorro
Reference: 20041028/Numbers.arcLast Updated: 2004-10-29

[ hide close-approach data ]
Close-Approach Data   ...sorted by Date/Time (TDB)
Date/Time (TDB) Time Uncertainty
(days_HH:MM)
Body Nominal Distance (au) Minimum Distance (au) Maximum Distance (au) V-relative (km/s) V-infinity (km/s) JD (TDB) Time Uncertainty (minutes) Semi-major axis (km) Semi-minor axis (km) range-LOV angle (deg) N-sigma BP Orbit Ref. Reference Modified
1904-Apr-16 18:31 00:02 Inter 0.0189016753824709 0.0188742525501012 0.0189291003005573 6.45435928724118 6.45435916724559 2416587.271669600 1.68668513570361 1402.48207239504 55.4937088197788 -12.9153350484582 11550.5319956974 T 19 CATAB v2.0f-lin.ifort 2020-Feb-23 22:32:45 2020-Feb-23 22:32
1981-May-06 00:19 < 00:01 Psych 0.0472550465079196 0.0472509921363852 0.0472591014257618 2.35179283562558 2.35179272675616 2444730.513155212 0.741402344813334 362.365596589858 109.948844019292 60.728709741097 56743.911671999 T 19 CATAB v2.0f-lin.ifort 2020-Feb-23 22:32:45 2020-Feb-23 22:32

Alternate Designations
 1999 RK183 = 2000 YF75 
Ephemeris | Orbit Diagram | Orbital Elements | Mission Design | Physical Parameters | Discovery Circumstances | Close-Approach Data ]
ABOUT SSD CREDITS/AWARDS PRIVACY/COPYRIGHT GLOSSARY LINKS
FirstGov 2020-Oct-29 09:40 UT
(server date/time)  
NASA Home Page
Site Manager:   Ryan S. Park
Webmaster  Alan B. Chamberlin